Regional Weather Roundup
Issued by NWS Charleston, SC

Current Version | Previous Version | Text Only | Print | Product List | Glossary Off
Versions: 1 2 3 4 5 6 7 8 9 10 11 12 13 14 15 16 17 18 19 20 21 22 23 24 25 26 27 28 29 30 31 32 33 34 35 36 37 38 39 40 41 42 43 44 45 46 47 48 49 50

000
ASUS42 KCHS 251831
RWRCHS

REGIONAL WEATHER ROUNDUP
NATIONAL WEATHER SERVICE CHARLESTON SC
200 PM EDT MON SEP 25 2017

NOTE: "FAIR" INDICATES FEW OR NO CLOUDS BELOW 12,000 FEET WITH NO
SIGNIFICANT WEATHER AND/OR OBSTRUCTIONS TO VISIBILITY.

NOT ALL STATIONS ARE QUALITY CONTROLLED. USE DATA WITH CAUTION...
ESPECIALLY DEWPOINT OBSERVATIONS.

SCZ027-030-031-034>040-042>050-251900-
...SOUTHEAST SOUTH CAROLINA...

CITY           SKY/WX    TMP DP  RH WIND       PRES   REMARKS
N CHARLESTON   PTSUNNY   81  69  67 NE6       29.90F
6HR MIN TEMP:  70; 6HR MAX TEMP:  83;

WATERFRONT PRK   N/A     80  71  74 NE5       29.75F
JOHNS ISLAND   MOCLDY    82  72  69 N8        29.90F
PINOPOLIS        N/A     75  70  83 N7        29.85F
MONCKS CORNER  FAIR      77  66  69 N8        29.91F
SUMMERVILLE    FAIR      81  68  65 N9        29.92F
BEAUFORT MCAS  PTSUNNY   85  68  56 N8        29.90F
6HR MIN TEMP:  71; 6HR MAX TEMP:  86;

BEAUFORT ARPT  FAIR      81  68  65 N10       29.90F
HILTON HEAD IS MOSUNNY   84  70  61 N8        29.91F
WALTERBORO     CLOUDY    81  66  61 NW9       29.93F
ALLENDALE      NOT AVBL

...SOUTHERN MIDLANDS AND PEE DEE...

CITY           SKY/WX    TMP DP  RH WIND       PRES   REMARKS
GEORGETOWN     CLOUDY    72  70  94 N8        29.92F
KINGSTREE      CLOUDY    79  68  69 N3        29.92F
ORANGEBURG     CLOUDY    82  61  48 NE8       29.93F
6HR MIN TEMP:  69; 6HR MAX TEMP:  83;

BARNWELL       FAIR      86  64  48 N13       29.93F
AIKEN          FAIR      82  61  47 N10       29.99F
MANNING        FAIR      81  63  54 MISG      29.92F
COLUMBIA       CLOUDY    86  63  45 N13       29.93F
6HR MIN TEMP:  71; 6HR MAX TEMP:  86;

SUMTER         PTSUNNY   86  63  47 NE12      29.90F
6HR MIN TEMP:  70; 6HR MAX TEMP:  86;

FLORENCE       MOSUNNY   81  67  62 E14       29.94F
6HR MIN TEMP:  67; 6HR MAX TEMP:  82;

MYRTLE BEACH   CLOUDY    75  68  78 N14       29.91F
N MYRTLE BEACH MOSUNNY   79  69  71 N10G17    29.89F
6HR MIN TEMP:  70; 6HR MAX TEMP:  78;


$$

GAZ063-065-086>088-099>101-113>116-118-119-134>141-150-251900-
...SOUTHEAST GEORGIA...

CITY           SKY/WX    TMP DP  RH WIND       PRES   REMARKS
SAVANNAH ARPT  MOSUNNY   87  66  49 E6        29.91F
6HR MIN TEMP:  70; 6HR MAX TEMP:  87;

HUNTER AAF     MOSUNNY   86  68  55 N7        29.88F
6HR MIN TEMP:  71; 6HR MAX TEMP:  86; 6HR PCP: TRACE;

FORT STEWART   SUNNY     86  66  51 N7        29.89F
6HR MIN TEMP:  70; 6HR MAX TEMP:  86;

STATESBORO     SUNNY     85  61  45 N3        29.93F
SYLVANIA       CLEAR     85  70  59 NE6       29.94F
CLAXTON        FAIR      87  66  49 NW5       29.92F

...CSRA...CENTRAL AND FAR SOUTHEAST GEORGIA...

CITY           SKY/WX    TMP DP  RH WIND       PRES   REMARKS
THOMSON        SUNNY     83  64  51 NE5       30.02F
AUGUSTA-BUSH   SUNNY     86  57  37 E8        29.95F
6HR MIN TEMP:  69; 6HR MAX TEMP:  86;

AUGUSTA-DANIEL SUNNY     88  58  36 MISG      29.96F
SWAINSBORO     FAIR      84  64  51 NE7       29.96F
VIDALIA        SUNNY     88  63  42 NW7       29.94F
EASTMAN        FAIR      89  33  13 NE5       29.97F
HAZLEHURST     FAIR      89  42  19 N7        29.93F
ALMA           SUNNY     88  63  43 N7        29.92F
6HR MIN TEMP:  70; 6HR MAX TEMP:  89;

WAYCROSS       SUNNY     88  60  38 NE7       29.91F
JESUP          NOT AVBL
BAXLEY         FAIR      84  63  48 N7        29.92F
BRUNSWICK      SUNNY     86  59  39 N6        29.91F
SAINT SIMONS   SUNNY     85  71  63 E6        29.89F HX  90
6HR MIN TEMP:  73; 6HR MAX TEMP:  87;


$$

SCZ027-028-034-036>038-045-046-048>050-GAZ119-141-251900-
...LAKE AND SUPPLEMENTAL COASTAL OBSERVATIONS...

STATION/POSITION TIME  TEMP    WIND        PRES    WAVE   SWELL
                       AIR SEA DIR/SP/G            HT/PER HT/PER/DIR
                 (UTC) (F)     (DEG/KT/KT) (MB)    (FT/S) (FT/S/D)
WINYAH BAY       1645   72     350/  7     1013.0
LAKE MURRAY      1720   81      10/  4/  7 1013.9
ACE BASIN NERRS  1645   80     350/  2     1013.0
FORT PULASKI     1748   80 81   70/  6/ 11 1013.1F
SAPELO ISLAND    1700   84        CALM     1013.0

$$

ANZ835-935-AMZ111-154-330-350-352-354-370-450-454-472-251900-
...C-MAN AND BUOY OBSERVATIONS...

STATION/POSITION TIME  TEMP    WIND        PRES    WAVE   SWELL
                       AIR SEA DIR/SP/G            HT/PER HT/PER/DIR
                 (UTC) (F)     (DEG/KT/KT) (MB)    (FT/S) (FT/S/D)
BUOY 41004       1750   76 81   10/ 19/ 23 1011.0F  10/11  10/110/11
BUOY 41008       1750   77 81   10/ 10/ 12 1012.4F   5/13   5/ 90/13
FOLLY BEACH CMAN 1800   79      20/  3/  4 1013.1F
CAPERS NEARSHORE 1708   74 80   30/ 12/ 17 1012.4S
FRIPP NEARSHORE  1708   77      10/ 10/ 14 1018.9F


STATION/POSITION TIME  TEMP    WIND        PRES    WAVE   SWELL
                       AIR SEA DIR/SP/G            HT/PER HT/PER/DIR
                 (UTC) (F)     (DEG/KT/KT) (MB)    (FT/S) (FT/S/D)
5E ST. MARYS GA  1800      81                N/A     5/13   3/110/13
FRYING PAN BUOY  1750   78 82   10/ 21/ 27 1010.1F  10/14   7/130/14
BUOY 41025       1750   75 77   20/ 23/ 29 1009.8F  14/14  13/140/14
CAPE LOOKOUT NC  1800   79      20/ 21/ 30 1010.3F
BUOY 41002       1750   80 81  360/ 39/ 51  994.0F  22/12  16/100/12
BUOY 41010       1750          340/ 12/ 16 1010.2F  12/12  11/12
ST AUGUSTINE FL  1800   80 82   10/ 11/ 12 1012.2F


$$




USA.gov is the U.S. government's official web portal to all federal, state and local government web resources and services.